Overview Statistics Trail Chart Weather Telemetry Raw packets
 

This is the latest recevied weather packets stored in our database for station/object IW1RID-3. If no packets are shown the sender has not sent any weather packets the latest 10 day(s).

<< 13 14 15 16 17 18 19 >>
Time Temp. Humidity Pressure Rain* Wind** Luminosity Snow
1788215867 21.67° C 91% 1073.7 hPa - - - -
1788215789 21.67° C 91% 1073.7 hPa - - - -
1788214585 21.67° C 93% 1073.6 hPa - - - -
1788213380 21.67° C 92% 1073.5 hPa - - - -
1788212176 22.22° C 89% 1073.2 hPa - - - -
1788210971 22.22° C 91% 1072.9 hPa - - - -
1788209767 22.22° C 89% 1072.9 hPa - - - -
1788208562 22.78° C 87% 1072.7 hPa - - - -
1788207357 22.78° C 87% 1072.6 hPa - - - -
1788206152 23.33° C 85% 1072.6 hPa - - - -
1788204948 23.89° C 82% 1072.2 hPa - - - -
1788203743 23.89° C 82% 1072.1 hPa - - - -
1788202538 25° C 79% 1072 hPa - - - -
1788201334 25.56° C 75% 1071.8 hPa - - - -
1788198923 26.67° C 71% 1071.6 hPa - - - -
1788196513 28.33° C 66% 1071.8 hPa - - - -
1788195321 28.89° C 63% 1072.2 hPa - - - -
1788194104 28.89° C 62% 1072.4 hPa - - - -
1788192899 29.44° C 59% 1072.6 hPa - - - -
1788191692 29.44° C 59% 1072.6 hPa - - - -
1788190487 30.56° C 56% 1072.9 hPa - - - -
1788189283 30° C 58% 1073.2 hPa - - - -
1788188077 29.44° C 60% 1073.5 hPa - - - -
1788186873 30° C 59% 1073.6 hPa - - - -
1788185667 30° C 60% 1073.5 hPa - - - -

* Rain since midnight (hover to see other rain measurements)
** Current wind speed in m/s (hover to see current wind gust speed)